Погода в Тауйске

Россия / Магаданская область     59°43′28″N   149°19′41″E
темп.,
°C
ветер,
м/с
пор.,
м/с
влажн.,
%
обл.,
%
осадки,
мм/ч
давл.,
гПа
погр.,
м
25 января, вт
вт2523:00−29сз34846 0.0 101541
02:00−29сз34858 0.0 101443
05:00−30сз34857 0.0 101544
08:00−30сз348511 0.0 101546
11:00−29сз34845 0.0 101668
14:00−24сз34781 0.0 1015117
17:00−27сз22872 0.0 101511
20:00−30ссз22884 0.0 101620
26 января, ср
ср2623:00−30сз228694 0.0 101625
02:00−28сз2283100 0.0 101636
05:00−27сз2284100 0.0 101635
08:00−25сз2283100 0.0 101646
11:00−23сз3379100 0.0 101782
14:00−19сз3381100 0.0 1016189
17:00−19сз3396100 0.1 101664
20:00−20зсз2290100 0.1 101644
27 января, чт
чт2723:00−20сз3394100 0.2 101761
02:00−19сз3389100 0.1 101687
05:00−20сз3385100 0.1 101659
08:00−21сз228299 0.0 101631
11:00−22сз3381100 0.0 101679
14:00−19сз5573100 0.0 1014184
17:00−20сз6777100 0.0 1012145
20:00−20сз6784100 0.0 1010178
28 января, пт
пт2823:00−19сз6798100 0.6 1008193
02:00−17сз6895100 0.9 1006216
05:00−16сз5781100 1.1 1005168
08:00−15сз5780100 0.0 1004156
11:00−13сз5676100 0.0 1003138
14:00−9ссз4573100 0.0 1002162
17:00−11ссв3378100 0.0 100325
20:00−14с3377100 0.0 100437
29 января, сб
сб2923:00−15ссз447897 0.0 100344
02:00−15ссз4480100 0.0 100247
05:00−15сз568095 0.0 100167
08:00−13сз4680100 0.0 100195
11:00−10сз3480100 0.0 1002103
14:00−7сз3478100 0.0 100295
17:00−8св2279100 0.0 100518
20:00−9св1278100 0.0 100828